Regional Weather Roundup
Issued by NWS

Home | Current Version | Previous Version | Graphics & Text | Print | Product List | Glossary On
Versions: 1 2 3 4 5 6 7 8 9 10 11 12 13 14 15 16 17 18 19 20 21 22 23 24 25 26 27
000
ASUS45 KBOI 280510
RWRID

IDAHO REGIONAL WEATHER ROUNDUP
NATIONAL WEATHER SERVICE BOISE ID
1100 PM MDT FRI MAY 27 2016

NOTE: "FAIR" INDICATES FEW OR NO CLOUDS BELOW 12000 FEET
WITH NO SIGNIFICANT WEATHER AND/OR OBSTRUCTIONS TO VISIBILITY

IDZ012-014-280600-
SOUTHWEST IDAHO


CITY           SKY/WX    TMP DP  RH WIND       PRES   REMARKS
BOISE          CLEAR     57  28  33 NW8       29.97R
CALDWELL       CLEAR     56  33  42 W9        29.98R
MOUNTAIN HOME  CLEAR     54  31  42 NW8       29.96R
$$

IDZ016-017-280600-
SOUTHCENTRAL IDAHO


CITY           SKY/WX    TMP DP  RH WIND       PRES   REMARKS
BURLEY         CLEAR     52  32  46 SW10      29.96R
JEROME         CLEAR     52  29  41 SW9       29.97R
TWIN FALLS     CLEAR     48  30  49 SW10      29.99R
$$

IDZ019>023-280600-
SOUTHEAST IDAHO


CITY           SKY/WX    TMP DP  RH WIND       PRES   REMARKS
IDAHO FALLS    CLEAR     53  36  52 S13       29.95R
POCATELLO      CLEAR     53  33  46 S10       29.97R
REXBURG        CLOUDY    53  33  46 SW12      29.94R
$$

IDZ006-010-011-018-031-032-280600-
CENTRAL IDAHO MOUNTAINS


CITY           SKY/WX    TMP DP  RH WIND       PRES   REMARKS
MCCALL         CLEAR     44  32  62 W6        30.01R
HAILEY         CLEAR     43  36  75 CALM      29.96R
STANLEY          N/A     36  27  69 S5        30.02R WCI  32
SALMON         CLOUDY    50  36  57 N5        29.97S
CHALLIS        PTCLDY    46  35  65 NW8       29.98R
$$

IDZ002-004-006-007-026-280600-
NORTHERN IDAHO


CITY           SKY/WX    TMP DP  RH WIND       PRES   REMARKS
LEWISTON       PTCLDY    52  40  63 SE7       30.02R
LOWELL           N/A     52  45  77 CALM      30.05R
COEUR D`ALENE  CLOUDY    54  36  50 E7        29.97R
MULLAN PASS    PTCLDY    34  23  64 VRB5      30.02R WCI  30
$$




USA.gov is the U.S. government's official web portal to all federal, state and local government web resources and services.